Location: Herksen
(52.4316°N, 6.1319°E)
Time: 05:34:39
(UTC+00:00)

Cosmos 1766 Rocket - Pass Details

Date: 15 May 2026
Orbit: 597 x 625 km, 82.5° (Epoch: 6 June)

Event Time Altitude Azimuth Distance (km) Brightness Sun altitude
Rises 23:02:01 0° 352° (N) 2,858 8.7 -18.2°
Reaches altitude 10° 23:04:18 10° 358° (N) 1,950 7.4 -18.3°
Maximum altitude 23:08:30 51° 75° (ENE) 762 4.0 -18.3°
Enters shadow 23:10:09 32° 132° (SE) 1,040 4.3 -18.4°
